カタログに戻る

NIMBUS 2 DEB

運用中LEO
NORAD 28615·DEBRIS·🇺🇸 United States

打ち上げ May 15, 1966 から Vandenberg Space Force Base

Loading…

次のパス (今後24時間)

TLE

最新Source: Space-Track

元期: Sep 12, 2026, 17:20 UTC

1 28615U 66040AE  26255.72261932  .00003922  00000-0  29958-2 0  9991
2 28615 100.2422  58.1990 0033702 277.1496  93.1680 13.93901715617996

AllMySatでNIMBUS 2 DEBをリアルタイム追跡

Download on the App Store